Year,Month,Day,Hour,Minute,Value (Times are PST for temperature in C)
2009,09,22,00,00,11.00
2009,09,22,00,01,11.00
2009,09,22,00,02,11.10
2009,09,22,00,03,11.10
2009,09,22,00,04,11.10
2009,09,22,00,05,11.20
2009,09,22,00,06,11.20
2009,09,22,00,07,11.20
2009,09,22,00,08,11.20
2009,09,22,00,09,11.20
2009,09,22,00,10,11.20
2009,09,22,00,11,11.10
2009,09,22,00,12,11.10
2009,09,22,00,13,11.10
2009,09,22,00,14,11.00
2009,09,22,00,15,11.00
2009,09,22,00,16,11.00
2009,09,22,00,17,10.90
2009,09,22,00,18,10.90
2009,09,22,00,19,10.90
2009,09,22,00,20,10.90
2009,09,22,00,21,10.90
2009,09,22,00,22,10.90
2009,09,22,00,23,10.80
2009,09,22,00,24,10.80
2009,09,22,00,25,10.80
2009,09,22,00,26,10.80
2009,09,22,00,27,10.80
2009,09,22,00,28,10.80
2009,09,22,00,29,10.80
2009,09,22,00,30,10.80
2009,09,22,00,31,10.80
2009,09,22,00,32,10.80
2009,09,22,00,33,10.80
2009,09,22,00,34,10.80
2009,09,22,00,35,10.80
2009,09,22,00,36,10.80
2009,09,22,00,37,10.80
2009,09,22,00,38,10.80
2009,09,22,00,39,10.70
2009,09,22,00,40,10.70
2009,09,22,00,41,10.70
2009,09,22,00,42,10.70
2009,09,22,00,43,10.70
2009,09,22,00,44,10.70
2009,09,22,00,45,10.70
2009,09,22,00,46,10.70
2009,09,22,00,47,10.60
2009,09,22,00,48,10.60
2009,09,22,00,49,10.60
2009,09,22,00,50,10.60
2009,09,22,00,51,10.60
2009,09,22,00,52,10.60
2009,09,22,00,53,10.60
2009,09,22,00,54,10.50
2009,09,22,00,55,10.50
2009,09,22,00,56,10.50
2009,09,22,00,57,10.60
2009,09,22,00,58,10.60
2009,09,22,00,59,10.50
2009,09,22,01,00,10.50
2009,09,22,01,01,10.50
2009,09,22,01,02,10.50
2009,09,22,01,03,10.50
2009,09,22,01,04,10.50
2009,09,22,01,05,10.60
2009,09,22,01,06,10.50
2009,09,22,01,07,10.60
2009,09,22,01,08,10.60
2009,09,22,01,09,10.60
2009,09,22,01,10,10.50
2009,09,22,01,11,10.50
2009,09,22,01,12,10.50
2009,09,22,01,13,10.50
2009,09,22,01,14,10.40
2009,09,22,01,15,10.40
2009,09,22,01,16,10.40
2009,09,22,01,17,10.40
2009,09,22,01,18,10.40
2009,09,22,01,19,10.40
2009,09,22,01,20,10.40
2009,09,22,01,21,10.40
2009,09,22,01,22,10.40
2009,09,22,01,23,10.40
2009,09,22,01,24,10.40
2009,09,22,01,25,10.40
2009,09,22,01,26,10.40
2009,09,22,01,27,10.40
2009,09,22,01,28,10.40
2009,09,22,01,29,10.40
2009,09,22,01,30,10.40
2009,09,22,01,31,10.40
2009,09,22,01,32,10.40
2009,09,22,01,33,10.40
2009,09,22,01,34,10.40
2009,09,22,01,35,10.50
2009,09,22,01,36,10.50
2009,09,22,01,37,10.50
2009,09,22,01,38,10.60
2009,09,22,01,39,10.60
2009,09,22,01,40,10.60
2009,09,22,01,41,10.70
2009,09,22,01,42,10.70
2009,09,22,01,43,10.70
2009,09,22,01,44,10.70
2009,09,22,01,45,10.70
2009,09,22,01,46,10.70
2009,09,22,01,47,10.70
2009,09,22,01,48,10.70
2009,09,22,01,49,10.70
2009,09,22,01,50,10.60
2009,09,22,01,51,10.60
2009,09,22,01,52,10.60
2009,09,22,01,53,10.60
2009,09,22,01,54,10.60
2009,09,22,01,55,10.60
2009,09,22,01,56,10.70
2009,09,22,01,57,10.80
2009,09,22,01,58,10.90
2009,09,22,01,59,11.00
2009,09,22,02,00,11.00
2009,09,22,02,01,11.10
2009,09,22,02,02,11.10
2009,09,22,02,03,11.00
2009,09,22,02,04,11.00
2009,09,22,02,05,10.90
2009,09,22,02,06,10.90
2009,09,22,02,07,10.80
2009,09,22,02,08,10.80
2009,09,22,02,09,10.70
2009,09,22,02,10,10.60
2009,09,22,02,11,10.60
2009,09,22,02,12,10.60
2009,09,22,02,13,10.60
2009,09,22,02,14,10.50
2009,09,22,02,15,10.50
2009,09,22,02,16,10.50
2009,09,22,02,17,10.60
2009,09,22,02,18,10.50
2009,09,22,02,19,10.50
2009,09,22,02,20,10.50
2009,09,22,02,21,10.50
2009,09,22,02,22,10.50
2009,09,22,02,23,10.50
2009,09,22,02,24,10.60
2009,09,22,02,25,10.70
2009,09,22,02,26,10.70
2009,09,22,02,27,10.70
2009,09,22,02,28,10.70
2009,09,22,02,29,10.60
2009,09,22,02,30,10.60
2009,09,22,02,31,10.60
2009,09,22,02,32,10.50
2009,09,22,02,33,10.40
2009,09,22,02,34,10.40
2009,09,22,02,35,10.40
2009,09,22,02,36,10.40
2009,09,22,02,37,10.30
2009,09,22,02,38,10.30
2009,09,22,02,39,10.30
2009,09,22,02,40,10.30
2009,09,22,02,41,10.20
2009,09,22,02,42,10.20
2009,09,22,02,43,10.20
2009,09,22,02,44,10.10
2009,09,22,02,45,10.10
2009,09,22,02,46,10.10
2009,09,22,02,47,10.10
2009,09,22,02,48,10.10
2009,09,22,02,49,10.10
2009,09,22,02,50,10.10
2009,09,22,02,51,10.10
2009,09,22,02,52,10.10
2009,09,22,02,53,10.10
2009,09,22,02,54,10.00
2009,09,22,02,55,10.00
2009,09,22,02,56,10.00
2009,09,22,02,57,10.00
2009,09,22,02,58,10.00
2009,09,22,02,59,10.00
2009,09,22,03,00,9.90
2009,09,22,03,01,9.90
2009,09,22,03,02,10.00
2009,09,22,03,03,10.00
2009,09,22,03,04,10.00
2009,09,22,03,05,10.00
2009,09,22,03,06,10.00
2009,09,22,03,07,10.00
2009,09,22,03,08,10.00
2009,09,22,03,09,9.90
2009,09,22,03,10,9.90
2009,09,22,03,11,9.90
2009,09,22,03,12,9.80
2009,09,22,03,13,9.80
2009,09,22,03,14,9.80
2009,09,22,03,15,9.80
2009,09,22,03,16,9.80
2009,09,22,03,17,9.70
2009,09,22,03,18,9.70
2009,09,22,03,19,9.70
2009,09,22,03,20,9.70
2009,09,22,03,21,9.70
2009,09,22,03,22,9.60
2009,09,22,03,23,9.60
2009,09,22,03,24,9.60
2009,09,22,03,25,9.60
2009,09,22,03,26,9.60
2009,09,22,03,27,9.60
2009,09,22,03,28,9.60
2009,09,22,03,29,9.60
2009,09,22,03,30,9.50
2009,09,22,03,31,9.50
2009,09,22,03,32,9.50
2009,09,22,03,33,9.50
2009,09,22,03,34,9.40
2009,09,22,03,35,9.40
2009,09,22,03,36,9.40
2009,09,22,03,37,9.40
2009,09,22,03,38,9.40
2009,09,22,03,39,9.40
2009,09,22,03,40,9.40
2009,09,22,03,41,9.40
2009,09,22,03,42,9.40
2009,09,22,03,43,9.40
2009,09,22,03,44,9.40
2009,09,22,03,45,9.40
2009,09,22,03,46,9.30
2009,09,22,03,47,9.30
2009,09,22,03,48,9.30
2009,09,22,03,49,9.30
2009,09,22,03,50,9.30
2009,09,22,03,51,9.30
2009,09,22,03,52,9.30
2009,09,22,03,53,9.30
2009,09,22,03,54,9.30
2009,09,22,03,55,9.30
2009,09,22,03,56,9.30
2009,09,22,03,57,9.30
2009,09,22,03,58,9.30
2009,09,22,03,59,9.30
2009,09,22,04,00,9.30
2009,09,22,04,01,9.30
2009,09,22,04,02,9.30
2009,09,22,04,03,9.30
2009,09,22,04,04,9.30
2009,09,22,04,05,9.30
2009,09,22,04,06,9.30
2009,09,22,04,07,9.30
2009,09,22,04,08,9.30
2009,09,22,04,09,9.30
2009,09,22,04,10,9.30
2009,09,22,04,11,9.30
2009,09,22,04,12,9.30
2009,09,22,04,13,9.30
2009,09,22,04,14,9.30
2009,09,22,04,15,9.30
2009,09,22,04,16,9.30
2009,09,22,04,17,9.30
2009,09,22,04,18,9.30
2009,09,22,04,19,9.20
2009,09,22,04,20,9.20
2009,09,22,04,21,9.20
2009,09,22,04,22,9.20
2009,09,22,04,23,9.20
2009,09,22,04,24,9.20
2009,09,22,04,25,9.20
2009,09,22,04,26,9.20
2009,09,22,04,27,9.10
2009,09,22,04,28,9.10
2009,09,22,04,29,9.10
2009,09,22,04,30,9.10
2009,09,22,04,31,9.10
2009,09,22,04,32,9.10
2009,09,22,04,33,9.00
2009,09,22,04,34,9.00
2009,09,22,04,35,9.00
2009,09,22,04,36,9.00
2009,09,22,04,37,9.00
2009,09,22,04,38,9.00
2009,09,22,04,39,9.00
2009,09,22,04,40,9.00
2009,09,22,04,41,9.00
2009,09,22,04,42,9.00
2009,09,22,04,43,8.90
2009,09,22,04,44,8.90
2009,09,22,04,45,8.90
2009,09,22,04,46,8.90
2009,09,22,04,47,8.90
2009,09,22,04,48,8.90
2009,09,22,04,49,8.90
2009,09,22,04,50,8.90
2009,09,22,04,51,8.90
2009,09,22,04,52,8.90
2009,09,22,04,53,8.90
2009,09,22,04,54,8.90
2009,09,22,04,55,8.90
2009,09,22,04,56,8.90
2009,09,22,04,57,8.90
2009,09,22,04,58,8.80
2009,09,22,04,59,8.80
2009,09,22,05,00,8.80
2009,09,22,05,01,8.80
2009,09,22,05,02,8.80
2009,09,22,05,03,8.70
2009,09,22,05,04,8.70
2009,09,22,05,05,8.70
2009,09,22,05,06,8.70
2009,09,22,05,07,8.70
2009,09,22,05,08,8.70
2009,09,22,05,09,8.70
2009,09,22,05,10,8.70
2009,09,22,05,11,8.70
2009,09,22,05,12,8.70
2009,09,22,05,13,8.70
2009,09,22,05,14,8.70
2009,09,22,05,15,8.70
2009,09,22,05,16,8.70
2009,09,22,05,17,8.60
2009,09,22,05,18,8.60
2009,09,22,05,19,8.60
2009,09,22,05,20,8.60
2009,09,22,05,21,8.60
2009,09,22,05,22,8.60
2009,09,22,05,23,8.60
2009,09,22,05,24,8.60
2009,09,22,05,25,8.70
2009,09,22,05,26,8.70
2009,09,22,05,27,8.70
2009,09,22,05,28,8.70
2009,09,22,05,29,8.60
2009,09,22,05,30,8.60
2009,09,22,05,31,8.70
2009,09,22,05,32,8.70
2009,09,22,05,33,8.70
2009,09,22,05,34,8.70
2009,09,22,05,35,8.60
2009,09,22,05,36,8.60
2009,09,22,05,37,8.70
2009,09,22,05,38,8.60
2009,09,22,05,39,8.60
2009,09,22,05,40,8.60
2009,09,22,05,41,8.70
2009,09,22,05,42,8.60
2009,09,22,05,43,8.60
2009,09,22,05,44,8.60
2009,09,22,05,45,8.60
2009,09,22,05,46,8.60
2009,09,22,05,47,8.60
2009,09,22,05,48,8.60
2009,09,22,05,49,8.60
2009,09,22,05,50,8.60
2009,09,22,05,51,8.50
2009,09,22,05,52,8.50
2009,09,22,05,53,8.50
2009,09,22,05,54,8.50
2009,09,22,05,55,8.60
2009,09,22,05,56,8.60
2009,09,22,05,57,8.60
2009,09,22,05,58,8.60
2009,09,22,05,59,8.60
2009,09,22,06,00,8.60
2009,09,22,06,01,8.60
2009,09,22,06,02,8.60
2009,09,22,06,03,8.60
2009,09,22,06,04,8.60
2009,09,22,06,05,8.60
2009,09,22,06,06,8.60
2009,09,22,06,07,8.60
2009,09,22,06,08,8.60
2009,09,22,06,09,8.60
2009,09,22,06,10,8.60
2009,09,22,06,11,8.60
2009,09,22,06,12,8.60
2009,09,22,06,13,8.60
2009,09,22,06,14,8.50
2009,09,22,06,15,8.50
2009,09,22,06,16,8.50
2009,09,22,06,17,8.50
2009,09,22,06,18,8.50
2009,09,22,06,19,8.50
2009,09,22,06,20,8.50
2009,09,22,06,21,8.50
2009,09,22,06,22,8.50
2009,09,22,06,23,8.50
2009,09,22,06,24,8.50
2009,09,22,06,25,8.50
2009,09,22,06,26,8.50
2009,09,22,06,27,8.50
2009,09,22,06,28,8.50
2009,09,22,06,29,8.40
2009,09,22,06,30,8.40
2009,09,22,06,31,8.40
2009,09,22,06,32,8.40
2009,09,22,06,33,8.40
2009,09,22,06,34,8.40
2009,09,22,06,35,8.40
2009,09,22,06,36,8.40
2009,09,22,06,37,8.40
2009,09,22,06,38,8.40
2009,09,22,06,39,8.40
2009,09,22,06,40,8.40
2009,09,22,06,41,8.40
2009,09,22,06,42,8.40
2009,09,22,06,43,8.40
2009,09,22,06,44,8.40
2009,09,22,06,45,8.40
2009,09,22,06,46,8.40
2009,09,22,06,47,8.30
2009,09,22,06,48,8.30
2009,09,22,06,49,8.40
2009,09,22,06,50,8.40
2009,09,22,06,51,8.40
2009,09,22,06,52,8.30
2009,09,22,06,53,8.30
2009,09,22,06,54,8.30
2009,09,22,06,55,8.30
2009,09,22,06,56,8.30
2009,09,22,06,57,8.30
2009,09,22,06,58,8.30
2009,09,22,06,59,8.30
2009,09,22,07,00,8.30
2009,09,22,07,01,8.30
2009,09,22,07,02,8.30
2009,09,22,07,03,8.30
2009,09,22,07,04,8.30
2009,09,22,07,05,8.30
2009,09,22,07,06,8.40
2009,09,22,07,07,8.40
2009,09,22,07,08,8.30
2009,09,22,07,09,8.30
2009,09,22,07,10,8.30
2009,09,22,07,11,8.30
2009,09,22,07,12,8.30
2009,09,22,07,13,8.30
2009,09,22,07,14,8.30
2009,09,22,07,15,8.30
2009,09,22,07,16,8.30
2009,09,22,07,17,8.30
2009,09,22,07,18,8.30
2009,09,22,07,19,8.30
2009,09,22,07,20,8.30
2009,09,22,07,21,8.30
2009,09,22,07,22,8.30
2009,09,22,07,23,8.30
2009,09,22,07,24,8.30
2009,09,22,07,25,8.30
2009,09,22,07,26,8.30
2009,09,22,07,27,8.30
2009,09,22,07,28,8.30
2009,09,22,07,29,8.30
2009,09,22,07,30,8.30
2009,09,22,07,31,8.30
2009,09,22,07,32,8.30
2009,09,22,07,33,8.30
2009,09,22,07,34,8.30
2009,09,22,07,35,8.30
2009,09,22,07,36,8.30
2009,09,22,07,37,8.30
2009,09,22,07,38,8.30
2009,09,22,07,39,8.30
2009,09,22,07,40,8.30
2009,09,22,07,41,8.30
2009,09,22,07,42,8.30
2009,09,22,07,43,8.40
2009,09,22,07,44,8.40
2009,09,22,07,45,8.40
2009,09,22,07,46,8.40
2009,09,22,07,47,8.40
2009,09,22,07,48,8.40
2009,09,22,07,49,8.40
2009,09,22,07,50,8.40
2009,09,22,07,51,8.40
2009,09,22,07,52,8.40
2009,09,22,07,53,8.40
2009,09,22,07,54,8.40
2009,09,22,07,55,8.40
2009,09,22,07,56,8.40
2009,09,22,07,57,8.40
2009,09,22,07,58,8.50
2009,09,22,07,59,8.50
2009,09,22,08,00,8.50
2009,09,22,08,01,8.50
2009,09,22,08,02,8.50
2009,09,22,08,03,8.50
2009,09,22,08,04,8.50
2009,09,22,08,05,8.50
2009,09,22,08,06,8.40
2009,09,22,08,07,8.50
2009,09,22,08,08,8.50
2009,09,22,08,09,8.50
2009,09,22,08,10,8.50
2009,09,22,08,11,8.50
2009,09,22,08,12,8.50
2009,09,22,08,13,8.50
2009,09,22,08,14,8.50
2009,09,22,08,15,8.60
2009,09,22,08,16,8.60
2009,09,22,08,17,8.60
2009,09,22,08,18,8.60
2009,09,22,08,19,8.60
2009,09,22,08,20,8.60
2009,09,22,08,21,8.60
2009,09,22,08,22,8.60
2009,09,22,08,23,8.60
2009,09,22,08,24,8.60
2009,09,22,08,25,8.70
2009,09,22,08,26,8.70
2009,09,22,08,27,8.70
2009,09,22,08,28,8.70
2009,09,22,08,29,8.70
2009,09,22,08,30,8.70
2009,09,22,08,31,8.70
2009,09,22,08,32,8.70
2009,09,22,08,33,8.80
2009,09,22,08,34,8.80
2009,09,22,08,35,8.80
2009,09,22,08,36,8.80
2009,09,22,08,37,8.90
2009,09,22,08,38,9.00
2009,09,22,08,39,9.00
2009,09,22,08,40,9.20
2009,09,22,08,41,9.20
2009,09,22,08,42,9.30
2009,09,22,08,43,9.30
2009,09,22,08,44,9.40
2009,09,22,08,45,9.50
2009,09,22,08,46,9.50
2009,09,22,08,47,9.60
2009,09,22,08,48,9.70
2009,09,22,08,49,9.70
2009,09,22,08,50,9.80
2009,09,22,08,51,9.80
2009,09,22,08,52,9.80
2009,09,22,08,53,9.90
2009,09,22,08,54,10.00
2009,09,22,08,55,10.00
2009,09,22,08,56,10.10
2009,09,22,08,57,10.20
2009,09,22,08,58,10.20
2009,09,22,08,59,10.30
2009,09,22,09,00,10.30
2009,09,22,09,01,10.40
2009,09,22,09,02,10.50
2009,09,22,09,03,10.60
2009,09,22,09,04,10.70
2009,09,22,09,05,10.80
2009,09,22,09,06,10.90
2009,09,22,09,07,11.00
2009,09,22,09,08,11.10
2009,09,22,09,09,11.20
2009,09,22,09,10,11.20
2009,09,22,09,11,11.30
2009,09,22,09,12,11.40
2009,09,22,09,13,11.50
2009,09,22,09,14,11.50
2009,09,22,09,15,11.70
2009,09,22,09,16,11.80
2009,09,22,09,17,11.90
2009,09,22,09,18,12.10
2009,09,22,09,19,12.20
2009,09,22,09,20,12.40
2009,09,22,09,21,12.50
2009,09,22,09,22,12.60
2009,09,22,09,23,12.70
2009,09,22,09,24,12.80
2009,09,22,09,25,12.90
2009,09,22,09,26,13.00
2009,09,22,09,27,13.10
2009,09,22,09,28,13.10
2009,09,22,09,29,13.20
2009,09,22,09,30,13.30
2009,09,22,09,31,13.30
2009,09,22,09,32,13.40
2009,09,22,09,33,13.50
2009,09,22,09,34,13.60
2009,09,22,09,35,13.70
2009,09,22,09,36,13.70
2009,09,22,09,37,13.70
2009,09,22,09,38,13.70
2009,09,22,09,39,13.70
2009,09,22,09,40,13.70
2009,09,22,09,41,13.80
2009,09,22,09,42,13.90
2009,09,22,09,43,14.00
2009,09,22,09,44,14.10
2009,09,22,09,45,14.20
2009,09,22,09,46,14.30
2009,09,22,09,47,14.40
2009,09,22,09,48,14.50
2009,09,22,09,49,14.60
2009,09,22,09,50,14.70
2009,09,22,09,51,14.80
2009,09,22,09,52,14.90
2009,09,22,09,53,15.00
2009,09,22,09,54,15.00
2009,09,22,09,55,15.20
2009,09,22,09,56,15.30
2009,09,22,09,57,15.40
2009,09,22,09,58,15.60
2009,09,22,09,59,15.80
2009,09,22,10,00,15.90
2009,09,22,10,01,16.00
2009,09,22,10,02,16.10
2009,09,22,10,03,16.20
2009,09,22,10,04,16.30
2009,09,22,10,05,16.40
2009,09,22,10,06,16.50
2009,09,22,10,07,16.60
2009,09,22,10,08,16.70
2009,09,22,10,09,16.70
2009,09,22,10,10,16.70
2009,09,22,10,11,16.70
2009,09,22,10,12,16.70
2009,09,22,10,13,16.70
2009,09,22,10,14,16.70
2009,09,22,10,15,16.80
2009,09,22,10,16,16.80
2009,09,22,10,17,16.90
2009,09,22,10,18,16.90
2009,09,22,10,19,17.10
2009,09,22,10,20,17.10
2009,09,22,10,21,17.10
2009,09,22,10,22,17.00
2009,09,22,10,23,17.00
2009,09,22,10,24,16.90
2009,09,22,10,25,16.90
2009,09,22,10,26,16.90
2009,09,22,10,27,16.90
2009,09,22,10,28,16.90
2009,09,22,10,29,16.90
2009,09,22,10,30,16.90
2009,09,22,10,31,16.90
2009,09,22,10,32,16.90
2009,09,22,10,33,17.00
2009,09,22,10,34,17.00
2009,09,22,10,35,17.10
2009,09,22,10,36,17.10
2009,09,22,10,37,17.20
2009,09,22,10,38,17.30
2009,09,22,10,39,17.40
2009,09,22,10,40,17.60
2009,09,22,10,41,17.70
2009,09,22,10,42,17.70
2009,09,22,10,43,17.80
2009,09,22,10,44,17.90
2009,09,22,10,45,18.00
2009,09,22,10,46,18.20
2009,09,22,10,47,18.30
2009,09,22,10,48,18.30
2009,09,22,10,49,18.40
2009,09,22,10,50,18.50
2009,09,22,10,51,18.60
2009,09,22,10,52,18.70
2009,09,22,10,53,18.80
2009,09,22,10,54,18.90
2009,09,22,10,55,19.10
2009,09,22,10,56,19.20
2009,09,22,10,57,19.30
2009,09,22,10,58,19.40
2009,09,22,10,59,19.50
2009,09,22,11,00,19.60
2009,09,22,11,01,19.70
2009,09,22,11,02,19.80
2009,09,22,11,03,19.90
2009,09,22,11,04,20.00
2009,09,22,11,05,20.00
2009,09,22,11,06,20.00
2009,09,22,11,07,20.00
2009,09,22,11,08,20.00
2009,09,22,11,09,20.00
2009,09,22,11,10,20.00
2009,09,22,11,11,20.00
2009,09,22,11,12,20.00
2009,09,22,11,13,20.10
2009,09,22,11,14,20.20
2009,09,22,11,15,20.30
2009,09,22,11,16,20.40
2009,09,22,11,17,20.40
2009,09,22,11,18,20.50
2009,09,22,11,19,20.60
2009,09,22,11,20,20.70
2009,09,22,11,21,20.70
2009,09,22,11,22,20.80
2009,09,22,11,23,20.80
2009,09,22,11,24,20.70
2009,09,22,11,25,20.70
2009,09,22,11,26,20.70
2009,09,22,11,27,20.70
2009,09,22,11,28,20.70
2009,09,22,11,29,20.70
2009,09,22,11,30,20.80
2009,09,22,11,31,20.80
2009,09,22,11,32,20.90
2009,09,22,11,33,21.00
2009,09,22,11,34,21.00
2009,09,22,11,35,21.10
2009,09,22,11,36,21.10
2009,09,22,11,37,21.10
2009,09,22,11,38,21.00
2009,09,22,11,39,20.90
2009,09,22,11,40,20.90
2009,09,22,11,41,20.80
2009,09,22,11,42,20.70
2009,09,22,11,43,20.70
2009,09,22,11,44,20.70
2009,09,22,11,45,20.70
2009,09,22,11,46,20.70
2009,09,22,11,47,20.80
2009,09,22,11,48,20.80
2009,09,22,11,49,20.80
2009,09,22,11,50,20.90
2009,09,22,11,51,20.90
2009,09,22,11,52,20.90
2009,09,22,11,53,21.00
2009,09,22,11,54,21.00
2009,09,22,11,55,20.90
2009,09,22,11,56,20.90
2009,09,22,11,57,20.90
2009,09,22,11,58,20.80
2009,09,22,11,59,20.80
2009,09,22,12,00,20.70
2009,09,22,12,01,20.70
2009,09,22,12,02,20.70
2009,09,22,12,03,20.70
2009,09,22,12,04,20.70
2009,09,22,12,05,20.70
2009,09,22,12,06,20.60
2009,09,22,12,07,20.60
2009,09,22,12,08,20.60
2009,09,22,12,09,20.60
2009,09,22,12,10,20.50
2009,09,22,12,11,20.40
2009,09,22,12,12,20.40
2009,09,22,12,13,20.20
2009,09,22,12,14,20.10
2009,09,22,12,15,20.00
2009,09,22,12,16,19.80
2009,09,22,12,17,19.70
2009,09,22,12,18,19.70
2009,09,22,12,19,19.60
2009,09,22,12,20,19.60
2009,09,22,12,21,19.60
2009,09,22,12,22,19.60
2009,09,22,12,23,19.70
2009,09,22,12,24,19.70
2009,09,22,12,25,19.80
2009,09,22,12,26,19.80
2009,09,22,12,27,19.90
2009,09,22,12,28,20.00
2009,09,22,12,29,20.10
2009,09,22,12,30,20.20
2009,09,22,12,31,20.30
2009,09,22,12,32,20.40
2009,09,22,12,33,20.60
2009,09,22,12,34,20.70
2009,09,22,12,35,20.80
2009,09,22,12,36,20.80
2009,09,22,12,37,20.80
2009,09,22,12,38,20.90
2009,09,22,12,39,20.90
2009,09,22,12,40,20.90
2009,09,22,12,41,20.90
2009,09,22,12,42,21.00
2009,09,22,12,43,21.00
2009,09,22,12,44,21.00
2009,09,22,12,45,21.00
2009,09,22,12,46,21.00
2009,09,22,12,47,20.90
2009,09,22,12,48,20.90
2009,09,22,12,49,21.00
2009,09,22,12,50,21.00
2009,09,22,12,51,21.00
2009,09,22,12,52,21.10
2009,09,22,12,53,21.10
2009,09,22,12,54,21.10
2009,09,22,12,55,21.10
2009,09,22,12,56,21.10
2009,09,22,12,57,21.20
2009,09,22,12,58,21.20
2009,09,22,12,59,21.20
2009,09,22,13,00,21.20
2009,09,22,13,01,21.30
2009,09,22,13,02,21.30
2009,09,22,13,03,21.30
2009,09,22,13,04,21.30
2009,09,22,13,05,21.40
2009,09,22,13,06,21.40
2009,09,22,13,07,21.50
2009,09,22,13,08,21.50
2009,09,22,13,09,21.50
2009,09,22,13,10,21.60
2009,09,22,13,11,21.70
2009,09,22,13,12,21.80
2009,09,22,13,13,21.80
2009,09,22,13,14,21.90
2009,09,22,13,15,21.90
2009,09,22,13,16,22.00
2009,09,22,13,17,22.00
2009,09,22,13,18,22.00
2009,09,22,13,19,22.10
2009,09,22,13,20,22.10
2009,09,22,13,21,22.20
2009,09,22,13,22,22.20
2009,09,22,13,23,22.30
2009,09,22,13,24,22.30
2009,09,22,13,25,22.40
2009,09,22,13,26,22.50
2009,09,22,13,27,22.60
2009,09,22,13,28,22.70
2009,09,22,13,29,22.70
2009,09,22,13,30,22.90
2009,09,22,13,31,22.90
2009,09,22,13,32,23.00
2009,09,22,13,33,23.20
2009,09,22,13,34,23.30
2009,09,22,13,35,23.30
2009,09,22,13,36,23.40
2009,09,22,13,37,23.50
2009,09,22,13,38,23.50
2009,09,22,13,39,23.50
2009,09,22,13,40,23.50
2009,09,22,13,41,23.50
2009,09,22,13,42,23.50
2009,09,22,13,43,23.40
2009,09,22,13,44,23.40
2009,09,22,13,45,23.40
2009,09,22,13,46,23.20
2009,09,22,13,47,23.10
2009,09,22,13,48,23.00
2009,09,22,13,49,22.90
2009,09,22,13,50,22.80
2009,09,22,13,51,22.80
2009,09,22,13,52,22.80
2009,09,22,13,53,22.80
2009,09,22,13,54,22.90
2009,09,22,13,55,22.90
2009,09,22,13,56,22.90
2009,09,22,13,57,22.90
2009,09,22,13,58,22.90
2009,09,22,13,59,22.90
2009,09,22,14,00,23.00
2009,09,22,14,01,23.10
2009,09,22,14,02,23.10
2009,09,22,14,03,23.20
2009,09,22,14,04,23.20
2009,09,22,14,05,23.20
2009,09,22,14,06,23.30
2009,09,22,14,07,23.30
2009,09,22,14,08,23.40
2009,09,22,14,09,23.40
2009,09,22,14,10,23.50
2009,09,22,14,11,23.60
2009,09,22,14,12,23.70
2009,09,22,14,13,23.70
2009,09,22,14,14,23.60
2009,09,22,14,15,23.60
2009,09,22,14,16,23.60
2009,09,22,14,17,23.50
2009,09,22,14,18,23.50
2009,09,22,14,19,23.50
2009,09,22,14,20,23.50
2009,09,22,14,21,23.60
2009,09,22,14,22,23.60
2009,09,22,14,23,23.70
2009,09,22,14,24,23.70
2009,09,22,14,25,23.70
2009,09,22,14,26,23.70
2009,09,22,14,27,23.70
2009,09,22,14,28,23.60
2009,09,22,14,29,23.60
2009,09,22,14,30,23.60
2009,09,22,14,31,23.70
2009,09,22,14,32,23.70
2009,09,22,14,33,23.70
2009,09,22,14,34,23.80
2009,09,22,14,35,24.00
2009,09,22,14,36,24.10
2009,09,22,14,37,24.10
2009,09,22,14,38,24.20
2009,09,22,14,39,24.20
2009,09,22,14,40,24.20
2009,09,22,14,41,24.10
2009,09,22,14,42,24.10
2009,09,22,14,43,24.10
2009,09,22,14,44,24.00
2009,09,22,14,45,24.00
2009,09,22,14,46,24.10
2009,09,22,14,47,24.00
2009,09,22,14,48,23.90
2009,09,22,14,49,23.80
2009,09,22,14,50,23.80
2009,09,22,14,51,23.80
2009,09,22,14,52,23.90
2009,09,22,14,53,23.90
2009,09,22,14,54,24.00
2009,09,22,14,55,24.10
2009,09,22,14,56,24.20
2009,09,22,14,57,24.20
2009,09,22,14,58,24.30
2009,09,22,14,59,24.30
2009,09,22,15,00,24.30
2009,09,22,15,01,24.30
2009,09,22,15,02,24.10
2009,09,22,15,03,24.10
2009,09,22,15,04,23.70
2009,09,22,15,05,23.50
2009,09,22,15,06,23.30
2009,09,22,15,07,23.30
2009,09,22,15,08,23.20
2009,09,22,15,09,23.10
2009,09,22,15,10,23.00
2009,09,22,15,11,23.00
2009,09,22,15,12,23.00
2009,09,22,15,13,23.10
2009,09,22,15,14,23.10
2009,09,22,15,15,23.10
2009,09,22,15,16,23.10
2009,09,22,15,17,23.10
2009,09,22,15,18,23.10
2009,09,22,15,19,23.10
2009,09,22,15,20,23.20
2009,09,22,15,21,23.20
2009,09,22,15,22,23.20
2009,09,22,15,23,23.30
2009,09,22,15,24,23.30
2009,09,22,15,25,23.30
2009,09,22,15,26,23.40
2009,09,22,15,27,23.40
2009,09,22,15,28,23.40
2009,09,22,15,29,23.30
2009,09,22,15,30,23.30
2009,09,22,15,31,23.20
2009,09,22,15,32,23.10
2009,09,22,15,33,22.90
2009,09,22,15,34,22.80
2009,09,22,15,35,22.70
2009,09,22,15,36,22.70
2009,09,22,15,37,22.70
2009,09,22,15,38,22.80
2009,09,22,15,39,22.80
2009,09,22,15,40,22.80
2009,09,22,15,41,22.80
2009,09,22,15,42,22.80
2009,09,22,15,43,22.70
2009,09,22,15,44,22.60
2009,09,22,15,45,22.60
2009,09,22,15,46,22.50
2009,09,22,15,47,22.50
2009,09,22,15,48,22.40
2009,09,22,15,49,22.40
2009,09,22,15,50,22.30
2009,09,22,15,51,22.30
2009,09,22,15,52,22.30
2009,09,22,15,53,22.20
2009,09,22,15,54,22.20
2009,09,22,15,55,22.10
2009,09,22,15,56,22.10
2009,09,22,15,57,22.10
2009,09,22,15,58,22.10
2009,09,22,15,59,22.10
2009,09,22,16,00,22.10
2009,09,22,16,01,22.10
2009,09,22,16,02,22.10
2009,09,22,16,03,22.10
2009,09,22,16,04,22.10
2009,09,22,16,05,22.10
2009,09,22,16,06,22.10
2009,09,22,16,07,22.10
2009,09,22,16,08,22.10
2009,09,22,16,09,22.10
2009,09,22,16,10,22.10
2009,09,22,16,11,22.10
2009,09,22,16,12,22.10
2009,09,22,16,13,22.10
2009,09,22,16,14,22.20
2009,09,22,16,15,22.20
2009,09,22,16,16,22.20
2009,09,22,16,17,22.20
2009,09,22,16,18,22.30
2009,09,22,16,19,22.30
2009,09,22,16,20,22.30
2009,09,22,16,21,22.30
2009,09,22,16,22,22.30
2009,09,22,16,23,22.40
2009,09,22,16,24,22.30
2009,09,22,16,25,22.30
2009,09,22,16,26,22.30
2009,09,22,16,27,22.30
2009,09,22,16,28,22.30
2009,09,22,16,29,22.30
2009,09,22,16,30,22.30
2009,09,22,16,31,22.30
2009,09,22,16,32,22.40
2009,09,22,16,33,22.40
2009,09,22,16,34,22.50
2009,09,22,16,35,22.60
2009,09,22,16,36,22.60
2009,09,22,16,37,22.60
2009,09,22,16,38,22.70
2009,09,22,16,39,22.70
2009,09,22,16,40,22.70
2009,09,22,16,41,22.60
2009,09,22,16,42,22.60
2009,09,22,16,43,22.60
2009,09,22,16,44,22.60
2009,09,22,16,45,22.60
2009,09,22,16,46,22.50
2009,09,22,16,47,22.50
2009,09,22,16,48,22.60
2009,09,22,16,49,22.60
2009,09,22,16,50,22.60
2009,09,22,16,51,22.60
2009,09,22,16,52,22.60
2009,09,22,16,53,22.60
2009,09,22,16,54,22.70
2009,09,22,16,55,22.80
2009,09,22,16,56,22.90
2009,09,22,16,57,23.00
2009,09,22,16,58,23.10
2009,09,22,16,59,23.20
2009,09,22,17,00,23.30
2009,09,22,17,01,23.40
2009,09,22,17,02,23.40
2009,09,22,17,03,23.40
2009,09,22,17,04,23.40
2009,09,22,17,05,23.50
2009,09,22,17,06,23.60
2009,09,22,17,07,23.60
2009,09,22,17,08,23.60
2009,09,22,17,09,23.70
2009,09,22,17,10,23.60
2009,09,22,17,11,23.60
2009,09,22,17,12,23.50
2009,09,22,17,13,23.40
2009,09,22,17,14,23.40
2009,09,22,17,15,23.30
2009,09,22,17,16,23.10
2009,09,22,17,17,23.00
2009,09,22,17,18,22.80
2009,09,22,17,19,22.70
2009,09,22,17,20,22.50
2009,09,22,17,21,22.40
2009,09,22,17,22,22.30
2009,09,22,17,23,22.20
2009,09,22,17,24,22.00
2009,09,22,17,25,21.90
2009,09,22,17,26,21.80
2009,09,22,17,27,21.70
2009,09,22,17,28,21.50
2009,09,22,17,29,21.40
2009,09,22,17,30,21.20
2009,09,22,17,31,21.10
2009,09,22,17,32,21.00
2009,09,22,17,33,20.80
2009,09,22,17,34,20.70